[[{"header":{"parameterUnit":"m.s-1","parameterCategory":1,"la1":30.2991,"la2":30.254,"lo1":-89.0895,"lo2":-89.0444,"dy":0.0017,"dx":0.0017,"nx":28,"ny":28,"refTime":"2025-05-29T21:00:00:Z","depth":0,"parameterNumber":2,"parameterNumberName":"U-component_of_WINDS"},"data":[0,0,0,0,0,0,0,0,0,0,0,0,0,0,0,0,0,0,0,0,0,0,0,0,0,0,0,0,0,0,0,0,0,0,0,0,0,0,0,0,0,0,0,0,0,0,0,0,0,0,0,0,0,0,0,0,0,0,4.4739,4.4742,0,4.4985,4.4988,4.4991,4.5045,4.5044,4.5042,4.504,4.5277,4.5285,4.5293,0,0,0,0,0,0,0,0,0,0,0,0,0,4.4307,4.4315,4.4739,4.4742,4.4745,4.4985,4.4988,4.4992,4.5046,4.5044,4.5042,4.504,4.5275,4.5284,4.5294,0,0,0,0,0,0,0,0,0,0,0,0,0,4.4517,4.4317,4.4739,4.4802,4.481,4.4984,4.4988,4.4992,4.5046,4.5044,4.5041,4.5039,4.5272,4.5283,4.5295,4.5419,0,0,4.5331,4.5336,0,0,0,0,0,0,0,0,4.4505,4.4533,4.4789,4.4798,4.4807,4.4983,4.4923,4.5135,4.5047,4.4956,4.504,4.5037,4.518,4.5199,4.5251,4.543,4.5441,4.5332,4.5339,4.5344,4.5348,0,0,0,0,0,0,0,4.4491,4.4523,4.4836,4.4793,4.4804,4.4815,4.4842,4.4963,4.5079,4.4964,4.4968,4.4998,4.5184,4.5239,4.5257,4.5444,4.5332,4.5342,4.535,4.5354,4.5743,4.5746,0,0,0,0,0,0,4.4467,4.451,4.4828,4.4843,4.4647,4.4825,4.4855,4.4928,4.5078,4.5099,4.4999,4.4999,4.522,4.5243,4.5265,4.5423,4.5344,4.5355,4.5362,4.5739,4.5743,4.5747,0,0,0,0,0,0,4.4457,4.4495,4.4818,4.4679,4.4721,4.4835,4.4917,4.4935,4.499,4.5105,4.5125,4.5035,4.5219,4.5249,4.5383,4.5432,4.5361,4.5372,4.5736,4.5741,4.5745,4.5738,0,0,0,0,0,0,4.4445,4.4491,4.4541,4.468,4.4728,4.4934,4.492,4.4941,4.5012,4.5014,4.5143,4.5162,4.5219,4.5365,4.5394,4.5447,4.5381,4.5732,4.5738,4.5744,4.5734,4.5742,4.5748,0,0,0,0,0,4.4429,4.4525,4.4543,4.4581,4.4794,4.4937,4.4964,4.5032,4.5015,4.5065,4.5141,4.5158,4.5423,4.5378,4.5412,4.5468,4.5729,4.5736,4.5743,4.5731,4.574,4.5748,0,0,0,0,0,0,4.4381,4.4544,4.4566,4.471,4.481,4.4946,4.5011,4.5039,4.5142,4.5139,4.5215,4.5244,4.5373,4.5435,4.5382,4.5599,4.5575,4.5589,4.5554,4.5564,4.5571,4.5551,4.5391,0,0,0,0,0,4.4389,4.4496,4.463,4.4744,4.4795,4.4895,4.4959,4.5004,4.5109,4.5149,4.5234,4.5331,4.5437,4.5504,4.5607,4.5745,4.5774,4.5801,4.5808,4.5814,4.5824,4.5904,4.5917,4.5771,4.577,4.577,0,0,4.4403,4.4505,4.4566,4.4738,4.4821,4.4927,4.4929,4.504,4.5119,4.5164,4.5298,4.5365,4.5478,4.5616,4.568,4.5671,4.5872,4.5823,4.5826,4.5834,4.5912,4.5926,4.5938,4.5775,4.5775,4.5774,0,0,4.4483,4.4571,4.4678,4.4764,4.4892,4.496,4.4985,4.512,4.5167,4.5304,4.5342,4.5436,4.5615,4.5697,4.5761,4.5881,4.59,4.5912,4.5947,4.6025,4.6036,4.6047,4.6089,4.6104,4.5923,4.5923,4.5923,0,4.4481,4.4648,4.4727,4.484,4.4914,4.4969,4.5077,4.5154,4.5307,4.5356,4.5346,4.5577,4.5657,4.5815,4.5846,4.5896,4.5927,4.5895,4.6029,4.604,4.6051,4.6093,4.6109,4.5923,4.5923,4.5923,4.5923,0,4.4641,4.4756,4.4826,4.4981,4.5064,4.5172,4.5267,4.5341,4.5381,4.5449,4.5588,4.5689,4.5815,4.5857,4.5893,4.6022,4.6012,4.6015,4.5991,4.6065,4.6105,4.6121,4.5924,4.5924,4.5924,4.5924,0,0,4.4689,4.4895,4.4919,4.4992,4.5142,4.523,4.5343,4.5473,4.5535,4.564,4.5735,4.5891,4.5897,4.597,4.6017,4.6085,4.6176,4.608,4.6084,4.6093,4.6324,4.6319,4.6337,4.6192,4.6196,4.6198,4.6314,0,4.4787,4.4995,4.5073,4.5241,4.5349,4.5407,4.5505,4.5606,4.5675,4.5774,4.5847,4.5957,4.5956,4.6001,4.6072,4.6149,4.6222,4.6143,4.6278,4.6282,4.6245,4.6358,4.6352,4.6457,4.633,4.6333,4.6335,0,4.4926,4.5042,4.5222,4.5365,4.5413,4.55,4.5629,4.5724,4.584,4.5886,4.5972,4.6018,4.6136,4.6109,4.6273,4.6217,4.6278,4.6326,4.6331,4.6343,4.631,4.6371,4.6491,4.6506,4.6361,4.6359,4.6357,0,4.4943,4.5144,4.5279,4.534,4.5509,4.557,4.5642,4.5758,4.5833,4.5944,4.5993,4.6115,4.618,4.6272,4.6349,4.6322,4.6506,4.6485,4.6544,4.6542,4.6576,4.6572,4.6706,4.662,4.6619,4.6619,4.6619,0,4.5042,4.5149,4.5291,4.5373,4.5497,4.5587,4.5705,4.5781,4.5885,4.5981,4.6038,4.6127,4.6224,4.6325,4.6386,4.6513,4.6542,4.6579,4.6593,4.6573,4.6568,4.6611,4.6604,4.6623,4.6622,4.6622,4.6621,0,4.5079,4.5178,4.533,4.5482,4.5523,4.5607,4.5735,4.5817,4.5891,4.6014,4.6047,4.6162,4.6285,4.6373,4.6528,4.6569,4.6706,4.672,4.6667,4.6674,4.6728,4.6721,4.6891,4.6918,4.6816,4.6817,4.6817,0,4.5134,4.522,4.5384,4.5457,4.5531,4.5645,4.5725,4.5819,4.5898,4.6043,4.6107,4.6236,4.6343,4.6536,4.6631,4.6751,4.6768,4.682,4.6785,4.6764,4.6767,4.676,4.6769,4.6823,4.6823,4.6824,4.6824,0,4.522,4.5268,4.5383,4.5518,4.5613,4.5721,4.583,4.5885,4.5997,4.6084,4.6215,4.6299,4.6463,4.6589,4.6721,4.6792,4.6826,4.6836,4.6856,4.6834,4.6799,4.6818,4.6679,4.683,4.6829,4.6829,4.6829,4.6828,4.5268,4.5348,4.5479,4.5606,4.5701,4.5803,4.5889,4.5979,4.6091,4.6235,4.6284,4.6418,4.6537,4.6719,4.6793,4.6898,4.6894,4.6923,4.693,4.6935,4.6934,4.6787,4.6922,4.6922,4.6922,4.6922,4.6922,0,4.5356,4.5446,4.5563,4.5718,4.5819,4.5852,4.5976,4.6056,4.6176,4.6287,4.6395,4.6546,4.6671,4.6779,4.6908,4.6972,4.6991,4.7002,4.6996,4.7012,4.6929,4.6899,4.6985,4.6985,4.6985,4.6985,4.6985,4.6984,4.5414,4.5554,4.5618,4.5805,4.5892,4.603,4.6098,4.6193,4.6282,4.6451,4.6557,4.663,4.674,4.6879,4.6995,4.7024,4.7067,4.7075,4.7106,4.7025,4.7018,4.701,4.6982,4.7084,4.7084,4.7181,4.7181,4.7182]},{"header":{"parameterUnit":"m.s-1","parameterCategory":1,"la1":30.2991,"la2":30.254,"lo1":-89.0895,"lo2":-89.0444,"dy":0.0017,"dx":0.0017,"nx":28,"ny":28,"refTime":"2025-05-29T21:00:00:Z","depth":0,"parameterNumber":3,"parameterNumberName":"V-component_of_WINDS"},"data":[0,0,0,0,0,0,0,0,0,0,0,0,0,0,0,0,0,0,0,0,0,0,0,0,0,0,0,0,0,0,0,0,0,0,0,0,0,0,0,0,0,0,0,0,0,0,0,0,0,0,0,0,0,0,0,0,0,0,-0.4432,-0.4428,0,-0.4057,-0.4053,-0.4049,-0.3719,-0.3716,-0.3712,-0.3708,-0.3333,-0.3327,-0.3321,0,0,0,0,0,0,0,0,0,0,0,0,0,-0.4866,-0.486,-0.4433,-0.4428,-0.4423,-0.4058,-0.4053,-0.4048,-0.372,-0.3715,-0.3711,-0.3707,-0.3336,-0.3328,-0.332,0,0,0,0,0,0,0,0,0,0,0,0,0,-0.4604,-0.4858,-0.4433,-0.4215,-0.4192,-0.4059,-0.4053,-0.4046,-0.3721,-0.3715,-0.371,-0.3704,-0.3338,-0.3329,-0.3319,-0.3374,0,0,-0.329,-0.3286,0,0,0,0,0,0,0,0,-0.4619,-0.4588,-0.4252,-0.423,-0.4204,-0.3929,-0.4068,-0.3821,-0.3723,-0.39,-0.3708,-0.3702,-0.3537,-0.3511,-0.3453,-0.3357,-0.3341,-0.3289,-0.3283,-0.3279,-0.3276,0,0,0,0,0,0,0,-0.4638,-0.4602,-0.4284,-0.4248,-0.4218,-0.4137,-0.4093,-0.402,-0.3756,-0.3884,-0.386,-0.3819,-0.3523,-0.3463,-0.3442,-0.3335,-0.3289,-0.3281,-0.3275,-0.3271,-0.3255,-0.326,0,0,0,0,0,0,-0.4689,-0.462,-0.4296,-0.4273,-0.4401,-0.4134,-0.4085,-0.4023,-0.3755,-0.3709,-0.3824,-0.3805,-0.3482,-0.3453,-0.3428,-0.3468,-0.3279,-0.327,-0.3264,-0.325,-0.3256,-0.3262,0,0,0,0,0,0,-0.4699,-0.4663,-0.4311,-0.4439,-0.4388,-0.4132,-0.4066,-0.4019,-0.3959,-0.371,-0.3662,-0.3812,-0.3477,-0.3441,-0.3387,-0.3451,-0.3266,-0.3257,-0.3243,-0.3251,-0.3259,-0.3555,0,0,0,0,0,0,-0.4713,-0.4669,-0.4688,-0.4442,-0.4383,-0.4278,-0.407,-0.4016,-0.3942,-0.3913,-0.3686,-0.3643,-0.347,-0.3403,-0.3378,-0.3434,-0.3249,-0.3236,-0.3247,-0.3256,-0.3538,-0.3572,-0.3601,0,0,0,0,0,-0.473,-0.479,-0.4691,-0.4653,-0.4401,-0.4283,-0.4249,-0.4046,-0.3949,-0.3965,-0.3803,-0.365,-0.3448,-0.34,-0.3369,-0.3424,-0.3232,-0.3244,-0.3256,-0.3524,-0.3565,-0.36,0,0,0,0,0,0,-0.5056,-0.4754,-0.4641,-0.4623,-0.448,-0.4227,-0.4242,-0.4097,-0.3982,-0.3961,-0.3716,-0.3667,-0.3639,-0.3525,-0.3478,-0.3457,-0.3318,-0.3325,-0.3533,-0.357,-0.3601,-0.3629,-0.3241,0,0,0,0,0,-0.5125,-0.5053,-0.4793,-0.4803,-0.4736,-0.4502,-0.4443,-0.4298,-0.4142,-0.4081,-0.3915,-0.3772,-0.3673,-0.3616,-0.3513,-0.3519,-0.3462,-0.354,-0.3571,-0.3598,-0.3607,-0.3594,-0.3624,-0.3301,-0.3301,-0.3301,0,0,-0.5269,-0.5095,-0.5065,-0.4864,-0.4736,-0.4666,-0.4454,-0.4392,-0.4336,-0.4072,-0.4008,-0.3882,-0.3704,-0.3679,-0.3659,-0.3583,-0.3682,-0.3614,-0.3637,-0.363,-0.3609,-0.364,-0.3668,-0.3309,-0.3308,-0.3307,0,0,-0.5494,-0.5357,-0.5345,-0.5219,-0.5025,-0.4867,-0.4865,-0.4631,-0.4535,-0.4466,-0.4264,-0.4195,-0.4035,-0.3913,-0.3832,-0.3999,-0.3852,-0.3973,-0.4137,-0.4128,-0.4153,-0.4174,-0.423,-0.4253,-0.3982,-0.3983,-0.3983,0,-0.5698,-0.5582,-0.5359,-0.5304,-0.522,-0.497,-0.4955,-0.4845,-0.4631,-0.4578,-0.4494,-0.428,-0.4144,-0.4083,-0.4122,-0.4066,-0.4052,-0.3999,-0.4167,-0.4186,-0.4203,-0.4253,-0.4275,-0.3999,-0.3997,-0.3995,-0.3994,0,-0.584,-0.5763,-0.5777,-0.5569,-0.5485,-0.5453,-0.5222,-0.5165,-0.5024,-0.4875,-0.4805,-0.463,-0.4484,-0.4458,-0.4325,-0.4376,-0.4333,-0.4213,-0.4067,-0.4253,-0.4295,-0.4313,-0.4021,-0.4016,-0.4011,-0.4007,0,0,-0.6266,-0.5927,-0.5936,-0.5835,-0.5599,-0.5535,-0.5488,-0.5339,-0.5292,-0.5151,-0.5103,-0.4968,-0.485,-0.4757,-0.4606,-0.4598,-0.4734,-0.4475,-0.4467,-0.4527,-0.4774,-0.4866,-0.4892,-0.4634,-0.4637,-0.4639,-0.4787,0,-0.6451,-0.6349,-0.6142,-0.6106,-0.6028,-0.5786,-0.5743,-0.5594,-0.5451,-0.5364,-0.5206,-0.5112,-0.4967,-0.4907,-0.4888,-0.4723,-0.4781,-0.4709,-0.4586,-0.4585,-0.4637,-0.4914,-0.5013,-0.5162,-0.4803,-0.4806,-0.4808,0,-0.6654,-0.6519,-0.6475,-0.6234,-0.6194,-0.616,-0.6003,-0.5924,-0.5746,-0.5642,-0.5533,-0.5364,-0.5298,-0.5164,-0.5068,-0.5024,-0.496,-0.487,-0.4871,-0.4851,-0.4708,-0.4901,-0.5205,-0.5227,-0.4833,-0.4831,-0.4829,0,-0.6964,-0.6773,-0.6718,-0.6639,-0.636,-0.634,-0.6223,-0.6039,-0.5961,-0.5824,-0.5769,-0.5629,-0.5552,-0.5446,-0.5242,-0.5164,-0.5167,-0.5017,-0.5076,-0.5082,-0.5089,-0.5092,-0.5386,-0.5053,-0.5052,-0.5052,-0.5051,0,-0.7191,-0.7172,-0.6852,-0.6819,-0.6788,-0.6549,-0.6526,-0.6386,-0.6223,-0.6157,-0.594,-0.5883,-0.5617,-0.5529,-0.5369,-0.531,-0.5278,-0.5191,-0.5148,-0.5209,-0.522,-0.5164,-0.5148,-0.5057,-0.5056,-0.5055,-0.5054,0,-0.7533,-0.7319,-0.7242,-0.698,-0.6913,-0.6903,-0.6677,-0.6635,-0.6475,-0.6394,-0.6361,-0.6112,-0.5995,-0.578,-0.5605,-0.5496,-0.5471,-0.5399,-0.553,-0.5503,-0.5573,-0.5568,-0.5841,-0.5862,-0.5521,-0.5524,-0.5527,0,-0.7692,-0.767,-0.7403,-0.734,-0.723,-0.7135,-0.705,-0.6812,-0.6733,-0.6524,-0.6506,-0.6371,-0.625,-0.6075,-0.5878,-0.5741,-0.5662,-0.5766,-0.564,-0.5699,-0.5658,-0.5661,-0.5655,-0.5796,-0.5801,-0.5805,-0.5808,0,-0.7993,-0.7885,-0.7772,-0.7619,-0.7523,-0.7392,-0.725,-0.7212,-0.6941,-0.6863,-0.6738,-0.6644,-0.6459,-0.6327,-0.6159,-0.6037,-0.5877,-0.5848,-0.5854,-0.5915,-0.599,-0.5946,-0.5605,-0.5844,-0.584,-0.5838,-0.5836,-0.5834,-0.8244,-0.8211,-0.8015,-0.7893,-0.7759,-0.7629,-0.7574,-0.7404,-0.7295,-0.7123,-0.6989,-0.6874,-0.6688,-0.6445,-0.6332,-0.6237,-0.6162,-0.6173,-0.6174,-0.618,-0.6202,-0.6007,-0.6207,-0.6205,-0.6204,-0.6203,-0.6202,0,-0.8531,-0.8391,-0.8281,-0.8085,-0.7988,-0.784,-0.7673,-0.7602,-0.7502,-0.7342,-0.7224,-0.7077,-0.6945,-0.6735,-0.6586,-0.6549,-0.6471,-0.6518,-0.6517,-0.6491,-0.628,-0.6288,-0.6583,-0.6583,-0.6583,-0.6583,-0.6583,-0.6583,-0.8669,-0.8601,-0.847,-0.8332,-0.8191,-0.8073,-0.7989,-0.7866,-0.7736,-0.758,-0.7468,-0.733,-0.7147,-0.6981,-0.6852,-0.6793,-0.6747,-0.6816,-0.6735,-0.6542,-0.6507,-0.6473,-0.6479,-0.6809,-0.6809,-0.6952,-0.6953,-0.6954]}]]